User: anonymous   Login
Location: Unspecified
(0.0000°N, 0.0000°E)
Time: 12:06:56
(UTC+00:00)
Language:

OFEQ 7 - Orbit

View from above orbital plane
View from above orbital plane
View from above satellite
View from above satellite

Ground track
Ground track

The orbit data is extracted from the following two-line orbital elements,

1 31601U 07025A   19083.12336131 0.00001800  00000-0  69336-4 0    09
2 31601 141.7203 341.0223 0004818  25.7173 334.2820 15.25447725    06
Epoch (UTC): 24 March 2019 02:57:38
Eccentricity: 0.0004818
inclination: 141.7203°
perigee height: 486 km
apogee height: 493 km
right ascension of ascending node: 341.0223°
argument of perigee: 25.7173°
revolutions per day: 15.25447725
mean anomaly at epoch: 334.2820°
orbit number at epoch: 0

The dashed part of the orbit path shows where the satellite is in the earth's shadow,  

DLR